Location: Waco, TX
(31.5480°N, 97.1670°W)
Time: 02:19:13
(UTC-06:00)

ISS - Pass Details

Date: 26 January 2021
Orbit: 417 x 422 km, 51.6° (Epoch: 09 March)

Event Time Altitude Azimuth Distance (km) Brightness Sun altitude
Rises 14:40:13 0° 201° (SSW) 2,346 1.1 32.4°
Reaches altitude 10° 14:42:29 10° 189° (S) 1,488 0.2 32.1°
Maximum altitude 14:45:22 27° 129° (SE) 830 -2.0 31.8°
Drops below altitude 10° 14:48:17 10° 69° (ENE) 1,498 -1.3 31.4°
Sets 14:50:34 0° 57° (ENE) 2,366 -0.4 31.1°
